Погода в Филаретовке

Россия / Приморский край     45°33′41″N   133°30′30″E
темп.,
°C
ветер,
м/с
пор.,
м/с
влажн.,
%
обл.,
%
осадки,
мм/ч
давл.,
гПа
погр.,
м
19 июня, сб
сб1901:00+15юв36935 0.6 1001126
04:00+12ююв1195100 0.6 100113
07:00+14юв259322 0.0 1002137
10:00+19ююв687251 0.1 10021157
13:00+19юв5676100 2.4 10021066
16:00+18вюв5771100 2.7 1001717
19:00+19вюв4773100 0.0 1001364
22:00+14вюв4772100 0.0 1002183
20 июня, вс
вс2001:00+12вюв2278100 0.0 100236
04:00+13в3572100 0.0 1002172
07:00+12вюв3695100 0.6 1003196
10:00+13в2392100 1.1 1004201
13:00+13в3795100 0.9 1005439
16:00+12в41090100 1.3 1004419
19:00+12юв2891100 0.1 1005308
22:00+11св2293100 0.3 100644
21 июня, пн
пн2101:00+10вюв2291100 0.0 100750
04:00+11вюв2589100 0.0 1007128
07:00+11в2387100 0.0 1007104
10:00+13св2482100 0.0 1008360
13:00+17св2364100 0.0 10081217
16:00+17с227029 0.0 1007700
19:00+14ююз458140 0.0 1008205
22:00+10ююз3389100 0.0 101056
22 июня, вт
вт2201:00+10ююз11905 0.0 101010
04:00+9юв11905 0.0 101110
07:00+11ююв11864 0.0 101168
10:00+17з11735 0.0 1011488
13:00+21сз22631 0.0 10111054
16:00+22сз22605 0.0 10101063
19:00+22зсз12710 0.0 1009798
22:00+16зюз22864 0.0 101111
23 июня, ср
ср2301:00+14ююз22915 0.0 101111
04:00+12ю22915 0.0 101111
07:00+14ююз239171 0.0 1012105
10:00+20юз337467 0.0 1012492
13:00+23зюз226425 0.0 1012844
16:00+24з336172 0.0 1010897
19:00+23сз127496 0.0 1010421
22:00+17юв1181100 0.0 101111